Weather History for Clemson, SC

Change the Weather History Date:

Saturday, February 23, 2013

  Actual Average Record
Temperature  
Mean Temperature 44 °F -  
Max Temperature 48 °F 57 °F 75 °F (2012)
Min Temperature 41 °F 34 °F 12 °F (1939)
Degree Days  
Heating Degree Days 20    
Moisture  
Dew Point 40 °F    
Average Humidity 84    
Maximum Humidity 90    
Minimum Humidity 79    
Precipitation  
Precipitation 0.38 in - - ()
Sea Level Pressure  
Sea Level Pressure 29.95 in    
Wind  
Wind Speed 4 mph (NE)    
Max Wind Speed 8 mph    
Max Gust Speed -    
Visibility 6 miles    
Events Fog , Rain    
Averages and records for this station are not official NWS values.
T = Trace of Precipitation, MM = Missing Value Source: NWS Daily Summary

Daily Weather History Graph

Daily Weather History Graph

Search for Another Location

Airport:

Trip Planner

Search our weather history database for the weather conditions in past years. The results will help you decide how hot, cold, wet, or windy it might be!

Date:

Astronomy

Feb. 23, 2013 Rise Set
Actual Time 7:07 AM EST 6:22 PM EST
Civil Twilight 6:42 AM EST 6:47 PM EST
Nautical Twilight 6:13 AM EST 7:17 PM EST
Astronomical Twilight 5:43 AM EST 7:46 PM EST
Moon 4:34 PM EST (2/23) 5:26 AM EST (2/23)
Length of Visible Light 12h 05m
Length of Day
11h 14m
Waxing Gibbous, 95% of the Moon is Illuminated
Feb 23
Waxing Gibbous
Feb 25
Full
Mar 4
Last Quarter
Mar 11
New
Mar 19
First Quarter

Hourly Weather History & Observations

Time (EST) Temp. Windchill Dew Point Humidity Pressure Visibility Wind Dir Wind Speed Gust Speed Precip Events Conditions
12:54 AM 42.1 °F 38.4 °F 37.9 °F 85% 30.09 in 6.0 mi East 5.8 mph - 0.00 in Rain Light Rain
1:54 AM 42.1 °F 37.1 °F 37.9 °F 85% 30.04 in 7.0 mi NE 8.1 mph - 0.01 in   Overcast
2:54 AM 42.1 °F - 37.9 °F 85% 30.04 in 4.0 mi Calm Calm - N/A Rain Rain
3:26 AM 42.8 °F 40.1 °F 37.4 °F 81% 30.00 in 2.0 mi NE 4.6 mph - N/A Rain Light Rain
3:37 AM 42.8 °F 39.3 °F 37.4 °F 81% 29.99 in 5.0 mi ENE 5.8 mph - N/A Rain Rain
3:54 AM 42.1 °F 37.7 °F 37.9 °F 85% 29.99 in 6.0 mi NNE 6.9 mph - N/A Rain Rain
4:54 AM 41.0 °F 35.8 °F 37.9 °F 89% 29.95 in 8.0 mi East 8.1 mph - 0.01 in Rain Light Rain
5:54 AM 41.0 °F 37.1 °F 37.9 °F 89% 29.95 in 8.0 mi ENE 5.8 mph - N/A Rain Light Rain
6:06 AM 42.8 °F - 37.4 °F 81% 29.96 in 6.0 mi Calm Calm - 0.00 in Rain Light Rain
6:24 AM 42.8 °F - 37.4 °F 81% 29.96 in 10.0 mi Calm Calm - 0.01 in Rain Light Rain
6:54 AM 42.1 °F 40.2 °F 37.9 °F 85% 29.97 in 10.0 mi ENE 3.5 mph - 0.02 in   Overcast
7:54 AM 41.0 °F 39.0 °F 37.9 °F 89% 29.98 in 1.8 mi ESE 3.5 mph - 0.03 in Rain Light Rain
8:12 AM 41.0 °F 38.0 °F 37.4 °F 87% 29.98 in 2.0 mi East 4.6 mph - 0.01 in Rain Light Rain
8:50 AM 42.8 °F - 37.4 °F 81% 29.99 in 1.8 mi Calm Calm - 0.03 in Rain Light Rain
8:54 AM 42.1 °F 39.2 °F 37.9 °F 85% 29.99 in 1.8 mi NE 4.6 mph - 0.03 in Rain Light Rain
9:04 AM 42.8 °F 40.1 °F 37.4 °F 81% 29.98 in 2.0 mi NNE 4.6 mph - 0.01 in Rain Light Rain
9:11 AM 42.8 °F 41.1 °F 37.4 °F 81% 29.99 in 2.0 mi North 3.5 mph - 0.02 in Rain Light Rain
9:25 AM 42.8 °F 39.3 °F 37.4 °F 81% 29.97 in 2.5 mi NE 5.8 mph - 0.02 in Rain Light Rain
9:37 AM 42.8 °F 39.3 °F 37.4 °F 81% 29.97 in 3.0 mi NNE 5.8 mph - 0.03 in Rain Light Rain
9:54 AM 42.1 °F 40.2 °F 37.9 °F 85% 29.97 in 5.0 mi NE 3.5 mph - 0.04 in   Overcast
10:35 AM 42.8 °F 41.1 °F 39.2 °F 87% 29.96 in 10.0 mi NE 3.5 mph - 0.02 in   Overcast
10:54 AM 44.1 °F - 39.0 °F 82% 29.98 in 10.0 mi Calm Calm - 0.03 in   Overcast
11:54 AM 44.1 °F - 39.0 °F 82% 29.98 in 10.0 mi Calm Calm - 0.03 in   Overcast
12:54 PM 45.0 °F - 39.9 °F 82% 29.95 in 10.0 mi Calm Calm - 0.02 in   Overcast
1:54 PM 46.0 °F - 39.9 °F 79% 29.94 in 10.0 mi Calm Calm - 0.02 in   Overcast
2:54 PM 46.9 °F - 41.0 °F 80% 29.92 in 9.0 mi Calm Calm - 0.01 in   Overcast
3:54 PM 48.0 °F - 42.1 °F 80% 29.92 in 10.0 mi Calm Calm - 0.02 in   Overcast
4:54 PM 48.0 °F - 43.0 °F 83% 29.89 in 10.0 mi Calm Calm - 0.01 in   Overcast
5:54 PM 46.9 °F - 43.0 °F 86% 29.86 in 10.0 mi Calm Calm - 0.02 in   Overcast
6:54 PM 46.9 °F - 43.0 °F 86% 29.88 in 10.0 mi Calm Calm - 0.01 in   Overcast
7:18 PM 46.4 °F 45.2 °F 42.8 °F 87% 29.87 in 10.0 mi South 3.5 mph - 0.01 in   Overcast
7:54 PM 46.9 °F - 43.0 °F 86% 29.88 in 10.0 mi Calm Calm - 0.02 in   Overcast
8:54 PM 46.9 °F - 43.0 °F 86% 29.88 in 5.0 mi Calm Calm - 0.01 in   Overcast
9:44 PM 46.4 °F - 42.8 °F 87% 29.88 in 2.0 mi Calm Calm - 0.01 in   Overcast
9:51 PM 46.4 °F - 42.8 °F 87% 29.88 in 1.2 mi Calm Calm - 0.01 in   Overcast
9:54 PM 46.0 °F - 43.0 °F 89% 29.88 in 1.2 mi Calm Calm - 0.01 in   Overcast
10:24 PM 46.4 °F 44.3 °F 42.8 °F 87% 29.89 in 0.8 mi SW 4.6 mph - 0.01 in   Mist
10:54 PM 46.9 °F - 44.1 °F 90% 29.89 in 0.5 mi Calm Calm - 0.02 in Fog Fog
11:54 PM 46.9 °F - 44.1 °F 90% 29.90 in 0.5 mi Calm Calm - 0.01 in Fog Fog